User: anonymous   Login
Location: Unspecified
(0.0000°N, 0.0000°E)
Time: 20:47:27
(UTC+02:00)
Language:

Cosmos 1703 - Orbit

View from above orbital plane
View from above orbital plane
View from above satellite
View from above satellite

Ground track
Ground track

The orbit data is extracted from the following two-line orbital elements,

1 16262U 85108A   16121.52002658  .00000852  00000-0  51137-4 0  9994
2 16262  82.4753 295.0436 0008203 261.7553  98.2746 15.09647190656622
Epoch (UTC): 30 April 2016 12:28:50
Eccentricity: 0.0008203
inclination: 82.4753°
perigee height: 531 km
apogee height: 543 km
right ascension of ascending node: 295.0436°
argument of perigee: 261.7553°
revolutions per day: 15.09647190
mean anomaly at epoch: 98.2746°
orbit number at epoch: 65662

The dashed part of the orbit path shows where the satellite is in the earth's shadow,  

DLR